• In Deutschland
  • Länderverzeichnis
  • Für 7 Tage
  • Wassertemperatur
  • Satellitenkarten
  • Wetterkarte
  • Widgets
  • user-avatar
    Anmelden

    Stündliche Wetter Missão Velha

    Heute, 25 Februar, Sonntag

    Zeit Temperatur Niederschläge Wind Luftdruck Luftfeuchtigkeit
    00:00 +25°C° 0,1 mm 1 m/S 727 mmHg 84%
    01:00 +25°C° 0,1 mm 1 m/S 727 mmHg 86%
    02:00 +24°C° 0,1 mm 1 m/S 727 mmHg 88%
    03:00 +24°C° 0 mm 1 m/S 727 mmHg 91%
    04:00 +24°C° 0,2 mm 1 m/S 728 mmHg 92%
    05:00 +24°C° 0,2 mm 1 m/S 728 mmHg 93%
    06:00 +24°C° 0,2 mm 1 m/S 728 mmHg 93%
    07:00 +25°C° 0,2 mm 1 m/S 728 mmHg 88%
    08:00 +27°C° 0,2 mm 2 m/S 729 mmHg 82%
    09:00 +28°C° 0 mm 2 m/S 729 mmHg 75%
    10:00 +30°C° 0,1 mm 2 m/S 729 mmHg 66%
    11:00 +32°C° 0,1 mm 2 m/S 728 mmHg 58%
    12:00 +35°C° 0,1 mm 2 m/S 728 mmHg 50%
    13:00 +35°C° 0 mm 2 m/S 727 mmHg 48%
    14:00 +35°C° 0 mm 2 m/S 727 mmHg 47%
    15:00 +35°C° 0 mm 2 m/S 726 mmHg 46%
    16:00 +32°C° 0 mm 2 m/S 726 mmHg 53%
    17:00 +30°C° 0 mm 1 m/S 726 mmHg 59%
    18:00 +28°C° 0 mm 1 m/S 726 mmHg 66%
    19:00 +28°C° 0 mm 1 m/S 726 mmHg 68%
    20:00 +27°C° 0 mm 1 m/S 727 mmHg 71%
    21:00 +26°C° 0 mm 1 m/S 727 mmHg 73%
    22:00 +26°C° 0,2 mm 1 m/S 728 mmHg 78%
    23:00 +25°C° 0,2 mm 1 m/S 728 mmHg 83%

    Morgen, 26 Februar, Montag

    Zeit Temperatur Niederschläge Wind Luftdruck Luftfeuchtigkeit
    00:00 +24°C° 0,2 mm 1 m/S 728 mmHg 88%
    01:00 +24°C° 0,3 mm 1 m/S 728 mmHg 91%
    02:00 +24°C° 0,3 mm 1 m/S 728 mmHg 93%
    03:00 +23°C° 0,3 mm 1 m/S 728 mmHg 96%
    04:00 +23°C° 0,2 mm 1 m/S 728 mmHg 96%
    05:00 +23°C° 0,2 mm 1 m/S 728 mmHg 96%
    06:00 +23°C° 0,2 mm 1 m/S 728 mmHg 97%
    07:00 +25°C° 0,1 mm 1 m/S 729 mmHg 89%
    08:00 +27°C° 0,1 mm 2 m/S 729 mmHg 81%
    09:00 +28°C° 0,1 mm 2 m/S 730 mmHg 74%
    10:00 +30°C° 0,2 mm 2 m/S 729 mmHg 67%
    11:00 +31°C° 0,2 mm 2 m/S 729 mmHg 61%
    12:00 +34°C° 0,2 mm 2 m/S 729 mmHg 55%
    13:00 +32°C° 0,5 mm 2 m/S 728 mmHg 56%
    14:00 +32°C° 0,5 mm 2 m/S 727 mmHg 57%
    15:00 +32°C° 0,5 mm 2 m/S 726 mmHg 59%
    16:00 +31°C° 0,3 mm 2 m/S 726 mmHg 65%
    17:00 +29°C° 0,3 mm 1 m/S 726 mmHg 70%
    18:00 +27°C° 0,3 mm 1 m/S 726 mmHg 76%
    19:00 +27°C° 0 mm 1 m/S 727 mmHg 77%
    20:00 +26°C° 0 mm 1 m/S 727 mmHg 79%
    21:00 +23°C° 0 mm 0 m/S 728 mmHg 80%
    22:00 +25°C° 0,4 mm 1 m/S 728 mmHg 85%
    23:00 +24°C° 0,4 mm 1 m/S 728 mmHg 89%

    übermorgen, 27 Februar, Dienstag

    Zeit Temperatur Niederschläge Wind Luftdruck Luftfeuchtigkeit
    00:00 +24°C° 0,4 mm 2 m/S 728 mmHg 93%
    01:00 +24°C° 0,3 mm 2 m/S 728 mmHg 95%
    02:00 +23°C° 0,3 mm 1 m/S 728 mmHg 96%
    03:00 +23°C° 0,3 mm 1 m/S 728 mmHg 97%
    04:00 +23°C° 0,1 mm 1 m/S 728 mmHg 97%
    05:00 +23°C° 0,1 mm 1 m/S 728 mmHg 97%
    06:00 +23°C° 0,1 mm 1 m/S 729 mmHg 97%
    07:00 +25°C° 0 mm 1 m/S 729 mmHg 89%
    08:00 +26°C° 0 mm 1 m/S 730 mmHg 80%
    09:00 +28°C° 0 mm 2 m/S 730 mmHg 72%
    10:00 +30°C° 0 mm 2 m/S 730 mmHg 64%
    11:00 +32°C° 0 mm 2 m/S 729 mmHg 57%
    12:00 +35°C° 0 mm 2 m/S 729 mmHg 49%
    13:00 +34°C° 0,1 mm 2 m/S 728 mmHg 50%
    14:00 +34°C° 0,1 mm 2 m/S 727 mmHg 52%
    15:00 +34°C° 0,1 mm 2 m/S 726 mmHg 53%
    16:00 +31°C° 0,2 mm 1 m/S 726 mmHg 59%
    17:00 +30°C° 0,2 mm 1 m/S 726 mmHg 65%
    18:00 +26°C° 0,2 mm 0 m/S 726 mmHg 71%
    19:00 +27°C° 0 mm 1 m/S 727 mmHg 72%
    20:00 +27°C° 0 mm 1 m/S 727 mmHg 73%
    21:00 +26°C° 0 mm 1 m/S 728 mmHg 75%
    22:00 +26°C° 0 mm 1 m/S 728 mmHg 75%
    23:00 +26°C° 0 mm 1 m/S 728 mmHg 76%

    28 Februar, Mittwoch

    Zeit Temperatur Niederschläge Wind Luftdruck Luftfeuchtigkeit
    00:00 +26°C° 0 mm 1 m/S 728 mmHg 76%
    01:00 +25°C° 0,1 mm 1 m/S 728 mmHg 80%
    02:00 +24°C° 0,1 mm 1 m/S 727 mmHg 84%
    03:00 +24°C° 0,1 mm 1 m/S 727 mmHg 88%
    04:00 +23°C° 0 mm 1 m/S 727 mmHg 90%
    05:00 +23°C° 0 mm 1 m/S 728 mmHg 92%
    06:00 +23°C° 0 mm 1 m/S 728 mmHg 94%
    07:00 +25°C° 0 mm 1 m/S 729 mmHg 84%
    08:00 +28°C° 0 mm 1 m/S 729 mmHg 75%
    09:00 +31°C° 0 mm 1 m/S 730 mmHg 65%
    10:00 +32°C° 0,1 mm 1 m/S 729 mmHg 60%
    11:00 +33°C° 0,1 mm 1 m/S 729 mmHg 55%
    12:00 +35°C° 0,1 mm 1 m/S 728 mmHg 50%
    13:00 +34°C° 0,5 mm 1 m/S 727 mmHg 52%
    14:00 +34°C° 0,5 mm 1 m/S 727 mmHg 54%
    15:00 +33°C° 0,5 mm 1 m/S 726 mmHg 56%
    16:00 +31°C° 0,4 mm 1 m/S 726 mmHg 61%
    17:00 +28°C° 0,4 mm 0 m/S 726 mmHg 67%
    18:00 +26°C° 0,4 mm 0 m/S 726 mmHg 72%
    19:00 +25°C° 0,3 mm 0 m/S 727 mmHg 76%
    20:00 +26°C° 0,3 mm 1 m/S 727 mmHg 80%
    21:00 +25°C° 0,3 mm 1 m/S 728 mmHg 84%
    22:00 +25°C° 0,8 mm 1 m/S 728 mmHg 87%
    23:00 +25°C° 0,8 mm 1 m/S 728 mmHg 90%

    1 März, Donnerstag

    Zeit Temperatur Niederschläge Wind Luftdruck Luftfeuchtigkeit
    00:00 +24°C° 0,8 mm 2 m/S 728 mmHg 94%
    01:00 +24°C° 0,4 mm 1 m/S 728 mmHg 94%
    02:00 +24°C° 0,4 mm 1 m/S 728 mmHg 95%
    03:00 +24°C° 0,4 mm 1 m/S 727 mmHg 96%
    04:00 +24°C° 0,4 mm 1 m/S 728 mmHg 96%
    05:00 +24°C° 0,4 mm 1 m/S 728 mmHg 95%
    06:00 +22°C° 0,4 mm 0 m/S 729 mmHg 95%
    07:00 +25°C° 0,6 mm 1 m/S 729 mmHg 89%
    08:00 +27°C° 0,6 mm 1 m/S 730 mmHg 83%
    09:00 +29°C° 0,6 mm 2 m/S 730 mmHg 77%
    10:00 +30°C° 0,5 mm 2 m/S 730 mmHg 72%
    11:00 +31°C° 0,5 mm 2 m/S 729 mmHg 67%
    12:00 +32°C° 0,5 mm 2 m/S 729 mmHg 62%
    13:00 +31°C° 1,2 mm 2 m/S 728 mmHg 66%
    14:00 +31°C° 1,2 mm 2 m/S 728 mmHg 70%
    15:00 +30°C° 1,2 mm 2 m/S 727 mmHg 74%
    16:00 +29°C° 0,8 mm 2 m/S 727 mmHg 78%
    17:00 +27°C° 0,8 mm 1 m/S 727 mmHg 83%
    18:00 +26°C° 0,8 mm 1 m/S 728 mmHg 87%
    19:00 +25°C° 0,2 mm 1 m/S 728 mmHg 89%
    20:00 +25°C° 0,2 mm 1 m/S 729 mmHg 90%
    21:00 +25°C° 0,2 mm 1 m/S 729 mmHg 91%
    22:00 +24°C° 0,3 mm 1 m/S 729 mmHg 93%
    23:00 +24°C° 0,3 mm 1 m/S 729 mmHg 94%

    2 März, Freitag

    Zeit Temperatur Niederschläge Wind Luftdruck Luftfeuchtigkeit
    00:00 +24°C° 0,3 mm 1 m/S 729 mmHg 96%
    01:00 +24°C° 0 mm 1 m/S 729 mmHg 97%
    02:00 +24°C° 0 mm 1 m/S 729 mmHg 97%
    03:00 +23°C° 0 mm 1 m/S 728 mmHg 98%
    04:00 +23°C° 0 mm 1 m/S 728 mmHg 98%
    05:00 +23°C° 0 mm 1 m/S 729 mmHg 98%
    06:00 +23°C° 0 mm 1 m/S 729 mmHg 98%
    07:00 +25°C° 0 mm 1 m/S 729 mmHg 91%
    08:00 +27°C° 0 mm 1 m/S 730 mmHg 84%
    09:00 +28°C° 0 mm 1 m/S 730 mmHg 77%
    10:00 +30°C° 0,1 mm 2 m/S 730 mmHg 70%
    11:00 +31°C° 0,1 mm 2 m/S 730 mmHg 64%
    12:00 +34°C° 0,1 mm 2 m/S 729 mmHg 57%
    13:00 +32°C° 0,9 mm 2 m/S 729 mmHg 62%
    14:00 +31°C° 0,9 mm 2 m/S 728 mmHg 66%
    15:00 +31°C° 0,9 mm 1 m/S 727 mmHg 71%
    16:00 +29°C° 0,8 mm 1 m/S 727 mmHg 76%
    17:00 +28°C° 0,8 mm 1 m/S 727 mmHg 81%
    18:00 +26°C° 0,8 mm 1 m/S 727 mmHg 87%
    19:00 +25°C° 0,1 mm 1 m/S 728 mmHg 89%
    20:00 +25°C° 0,1 mm 1 m/S 728 mmHg 91%
    21:00 +24°C° 0,1 mm 1 m/S 728 mmHg 93%
    22:00 +24°C° 0,1 mm 1 m/S 728 mmHg 94%
    23:00 +23°C° 0,1 mm 1 m/S 728 mmHg 95%
    Mehr zeigen